| time (UTC) | temp F | wind direction | speed knots | gust knots | rain 1hr in | rain 24hr in | rain mn in | humidity % | barometer mb |
| 20260502163338 | 60 | 267 | 3.5 | 6.1 | 0.00 | 0.00 | 0.00 | 80 | 1013.5 |
| 20260502162331 | 60 | 285 | 3.5 | 5.2 | 0.00 | 0.00 | 0.00 | 81 | 1013.7 |
| 20260502161831 | 60 | 265 | 2.6 | 5.2 | 0.00 | 0.00 | 0.00 | 81 | 1013.7 |
| 20260502161331 | 60 | 259 | 2.6 | 5.2 | 0.00 | 0.00 | 0.00 | 80 | 1013.6 |
| 20260502160830 | 59 | 291 | 2.6 | 4.3 | 0.00 | 0.00 | 0.00 | 81 | 1013.6 |
| 20260502160330 | 59 | 291 | 3.5 | 5.2 | 0.00 | 0.00 | 0.00 | 81 | 1013.6 |
| 20260502152323 | 60 | 248 | 7.0 | 10.4 | 0.00 | 0.00 | 0.00 | 77 | 1014.4 |
| 20260502151823 | 60 | 249 | 6.1 | 8.7 | 0.00 | 0.00 | 0.00 | 77 | 1014.4 |
| 20260502151323 | 60 | 245 | 6.1 | 11.3 | 0.00 | 0.00 | 0.00 | 77 | 1014.5 |
| 20260502150824 | 60 | 238 | 7.0 | 11.3 | 0.00 | 0.00 | 0.00 | 77 | 1014.5 |
| 20260502150323 | 60 | 240 | 6.1 | 11.3 | 0.00 | 0.00 | 0.00 | 76 | 1014.5 |
| 20260502130148 | 67 | 227 | 7.8 | 13.0 | 0.00 | 0.00 | 0.00 | 61 | 1015.1 |
| 20260502123810 | 68 | 257 | 8.7 | 14.8 | 0.00 | 0.00 | 0.00 | 59 | 1015.1 |
| 20260502123309 | 69 | 226 | 7.8 | 14.8 | 0.00 | 0.00 | 0.00 | 56 | 1015.1 |
| 20260502122807 | 71 | 213 | 7.0 | 13.0 | 0.00 | 0.00 | 0.00 | 50 | 1015.1 |
| 20260502122307 | 71 | 192 | 7.0 | 13.0 | 0.00 | 0.00 | 0.00 | 47 | 1015.1 |
| 20260502121807 | 71 | 206 | 7.0 | 13.0 | 0.00 | 0.00 | 0.00 | 48 | 1015.1 |
| 20260502121308 | 70 | 218 | 7.0 | 13.0 | 0.00 | 0.00 | 0.00 | 49 | 1015.2 |
| 20260502121103 | 71 | 196 | 7.0 | 12.2 | 0.00 | 0.00 | 0.00 | 50 | 1015.2 |
| 20260502120307 | 70 | 196 | 6.1 | 12.2 | 0.00 | 0.00 | 0.00 | 50 | 1015.2 |
| 20260502115807 | 70 | 194 | 7.0 | 10.4 | 0.00 | 0.00 | 0.00 | 50 | 1015.4 |
| 20260502115306 | 70 | 220 | 7.0 | 10.4 | 0.00 | 0.00 | 0.00 | 51 | 1015.4 |
| 20260502114806 | 70 | 185 | 7.0 | 13.0 | 0.00 | 0.00 | 0.00 | 53 | 1015.4 |
| 20260502114306 | 70 | 183 | 7.0 | 14.8 | 0.00 | 0.00 | 0.00 | 51 | 1015.6 |
| 20260502113806 | 69 | 194 | 7.8 | 14.8 | 0.00 | 0.00 | 0.00 | 52 | 1015.6 |
| 20260502113305 | 69 | 197 | 7.8 | 15.6 | 0.00 | 0.00 | 0.00 | 52 | 1015.6 |
| 20260502112805 | 69 | 200 | 7.8 | 15.6 | 0.00 | 0.00 | 0.00 | 51 | 1015.6 |
| 20260502112306 | 70 | 213 | 7.0 | 11.3 | 0.00 | 0.00 | 0.00 | 53 | 1015.6 |
| 20260502111805 | 69 | 174 | 7.0 | 12.2 | 0.00 | 0.00 | 0.00 | 56 | 1015.6 |
| 20260502111306 | 69 | 168 | 7.8 | 12.2 | 0.00 | 0.00 | 0.00 | 52 | 1015.7 |
| 20260502110803 | 69 | 164 | 7.0 | 12.2 | 0.00 | 0.00 | 0.00 | 55 | 1015.7 |
| 20260502110303 | 69 | 182 | 6.1 | 10.4 | 0.00 | 0.00 | 0.00 | 57 | 1015.7 |
| 20260502105802 | 69 | 218 | 7.0 | 13.0 | 0.00 | 0.00 | 0.00 | 58 | 1015.8 |
| 20260502105301 | 68 | 202 | 7.0 | 13.0 | 0.00 | 0.00 | 0.00 | 55 | 1015.8 |
| 20260502104801 | 68 | 187 | 6.1 | 11.3 | 0.00 | 0.00 | 0.00 | 55 | 1015.8 |
| 20260502104301 | 68 | 202 | 6.1 | 12.2 | 0.00 | 0.00 | 0.00 | 56 | 1016.0 |
| 20260502103804 | 68 | 190 | 6.1 | 13.0 | 0.00 | 0.00 | 0.00 | 56 | 1016.0 |
| 20260502103318 | 67 | 172 | 7.8 | 13.0 | 0.00 | 0.00 | 0.00 | 57 | 1016.0 |
| 20260502102305 | 67 | 188 | 7.0 | 13.0 | 0.00 | 0.00 | 0.00 | 59 | 1016.1 |
| 20260502101802 | 67 | 197 | 7.0 | 13.9 | 0.00 | 0.00 | 0.00 | 59 | 1016.1 |
| 20260502101301 | 67 | 213 | 8.7 | 14.8 | 0.00 | 0.00 | 0.00 | 60 | 1016.2 |
| 20260502101109 | 67 | 212 | 8.7 | 14.8 | 0.00 | 0.00 | 0.00 | 59 | 1016.2 |
| 20260502100535 | 67 | 213 | 7.0 | 13.9 | 0.00 | 0.00 | 0.00 | 58 | 1016.2 |
| 20260502091256 | 66 | 188 | 7.8 | 15.6 | 0.00 | 0.00 | 0.00 | 62 | 1016.6 |
| 20260502090753 | 67 | 175 | 7.0 | 12.2 | 0.00 | 0.00 | 0.00 | 62 | 1016.6 |
| 20260502090252 | 67 | 221 | 7.0 | 12.2 | 0.00 | 0.00 | 0.00 | 61 | 1016.6 |
| 20260502071227 | 63 | 222 | 6.1 | 13.9 | 0.00 | 0.00 | 0.00 | 65 | 1017.0 |
| 20260502070722 | 63 | 226 | 5.2 | 13.9 | 0.00 | 0.00 | 0.00 | 67 | 1017.0 |
| 20260502070218 | 63 | 167 | 6.1 | 12.2 | 0.00 | 0.00 | 0.00 | 68 | 1017.0 |
| 20260502065721 | 62 | 197 | 6.1 | 11.3 | 0.00 | 0.00 | 0.00 | 68 | 1017.1 |
| 20260502065218 | 62 | 156 | 6.1 | 10.4 | 0.00 | 0.00 | 0.00 | 70 | 1017.1 |
| 20260502064719 | 62 | 159 | 6.1 | 10.4 | 0.00 | 0.00 | 0.00 | 70 | 1017.1 |
| 20260502064211 | 61 | 167 | 6.1 | 10.4 | 0.00 | 0.00 | 0.00 | 70 | 1017.1 |
| 20260502063714 | 61 | 177 | 5.2 | 10.4 | 0.00 | 0.00 | 0.00 | 70 | 1017.1 |
| 20260502063211 | 61 | 175 | 6.1 | 10.4 | 0.00 | 0.00 | 0.00 | 71 | 1017.1 |
| 20260502062709 | 60 | 163 | 6.1 | 10.4 | 0.00 | 0.00 | 0.00 | 72 | 1017.1 |
| 20260502062435 | 60 | 169 | 5.2 | 10.4 | 0.00 | 0.00 | 0.00 | 72 | 1017.1 |
| 20260502061708 | 60 | 202 | 5.2 | 8.7 | 0.00 | 0.00 | 0.00 | 73 | 1017.1 |
| 20260502061210 | 60 | 177 | 5.2 | 8.7 | 0.00 | 0.00 | 0.00 | 73 | 1017.1 |
| 20260502060711 | 59 | 155 | 5.2 | 9.6 | 0.00 | 0.00 | 0.00 | 74 | 1017.1 |
| 20260502060222 | 59 | 169 | 4.3 | 9.6 | 0.00 | 0.00 | 0.00 | 74 | 1017.1 |
| 20260502055206 | 58 | 169 | 4.3 | 8.7 | 0.00 | 0.00 | 0.00 | 76 | 1017.2 |
| 20260502054932 | 58 | 178 | 4.3 | 7.8 | 0.00 | 0.00 | 0.00 | 77 | 1017.2 |
| 20260502054436 | 57 | 168 | 4.3 | 10.4 | 0.00 | 0.00 | 0.00 | 77 | 1017.1 |
| 20260502053704 | 57 | 166 | 5.2 | 10.4 | 0.00 | 0.00 | 0.00 | 77 | 1017.1 |
| 20260502053210 | 57 | 175 | 5.2 | 7.8 | 0.00 | 0.00 | 0.00 | 78 | 1017.1 |
| 20260502052704 | 56 | 164 | 5.2 | 7.8 | 0.00 | 0.00 | 0.00 | 78 | 1017.1 |
| 20260502052201 | 56 | 171 | 5.2 | 10.4 | 0.00 | 0.00 | 0.00 | 78 | 1017.1 |
| 20260502051927 | 55 | 183 | 4.3 | 10.4 | 0.00 | 0.00 | 0.00 | 78 | 1017.1 |
| 20260502051200 | 55 | 177 | 5.2 | 8.7 | 0.00 | 0.00 | 0.00 | 78 | 1017.1 |
| 20260502050658 | 55 | 167 | 5.2 | 8.7 | 0.00 | 0.00 | 0.00 | 78 | 1017.1 |
| 20260502045925 | 54 | 179 | 4.3 | 9.6 | 0.00 | 0.00 | 0.00 | 79 | 1017.2 |
| 20260502045423 | 53 | 150 | 4.3 | 7.0 | 0.00 | 0.00 | 0.00 | 80 | 1017.2 |
| 20260502044653 | 53 | 153 | 4.3 | 8.7 | 0.00 | 0.00 | 0.00 | 80 | 1017.2 |
| 20260502044153 | 53 | 164 | 5.2 | 8.7 | 0.00 | 0.00 | 0.00 | 80 | 1017.2 |
| 20260502043653 | 53 | 159 | 4.3 | 7.8 | 0.00 | 0.00 | 0.00 | 80 | 1017.2 |
| 20260502043153 | 52 | 171 | 4.3 | 7.8 | 0.00 | 0.00 | 0.00 | 80 | 1017.2 |
| 20260502042654 | 52 | 152 | 4.3 | 7.0 | 0.00 | 0.00 | 0.00 | 80 | 1017.4 |
| 20260502042154 | 52 | 164 | 4.3 | 7.0 | 0.00 | 0.00 | 0.00 | 80 | 1017.4 |
| 20260502041654 | 51 | 151 | 4.3 | 7.0 | 0.00 | 0.00 | 0.00 | 80 | 1017.4 |
| 20260502041154 | 51 | 169 | 4.3 | 7.0 | 0.00 | 0.00 | 0.00 | 79 | 1017.5 |
| 20260502040654 | 51 | 142 | 4.3 | 7.0 | 0.00 | 0.00 | 0.00 | 79 | 1017.5 |
| 20260502040154 | 51 | 169 | 4.3 | 7.0 | 0.00 | 0.00 | 0.00 | 79 | 1017.5 |
| 20260502035653 | 51 | 147 | 4.3 | 7.0 | 0.00 | 0.00 | 0.00 | 78 | 1017.6 |
| 20260502035154 | 51 | 155 | 4.3 | 7.8 | 0.00 | 0.00 | 0.00 | 78 | 1017.6 |
| 20260502034647 | 51 | 154 | 4.3 | 7.8 | 0.00 | 0.00 | 0.00 | 78 | 1017.6 |
| 20260502034146 | 51 | 150 | 5.2 | 7.8 | 0.00 | 0.00 | 0.00 | 77 | 1017.7 |
| 20260502033636 | 51 | 159 | 5.2 | 7.8 | 0.00 | 0.00 | 0.00 | 77 | 1017.7 |
| 20260502033136 | 51 | 155 | 5.2 | 7.8 | 0.00 | 0.00 | 0.00 | 77 | 1017.7 |
| 20260502032636 | 51 | 153 | 4.3 | 7.0 | 0.00 | 0.00 | 0.00 | 77 | 1017.8 |
| 20260502032137 | 51 | 150 | 4.3 | 7.0 | 0.00 | 0.00 | 0.00 | 77 | 1017.8 |
| 20260502031636 | 51 | 150 | 4.3 | 7.0 | 0.00 | 0.00 | 0.00 | 76 | 1017.8 |
| 20260502031138 | 52 | 149 | 4.3 | 7.0 | 0.00 | 0.00 | 0.00 | 76 | 1018.1 |
| 20260502030636 | 52 | 146 | 4.3 | 7.0 | 0.00 | 0.00 | 0.00 | 75 | 1018.1 |
| 20260502030136 | 52 | 146 | 4.3 | 8.7 | 0.00 | 0.00 | 0.00 | 75 | 1018.1 |
| 20260502025635 | 52 | 150 | 5.2 | 8.7 | 0.00 | 0.00 | 0.00 | 75 | 1018.2 |
| 20260502025135 | 52 | 144 | 5.2 | 7.8 | 0.00 | 0.00 | 0.00 | 75 | 1018.2 |
| 20260502024638 | 52 | 146 | 4.3 | 7.8 | 0.00 | 0.00 | 0.00 | 75 | 1018.2 |
| 20260502024136 | 52 | 144 | 5.2 | 7.8 | 0.00 | 0.00 | 0.00 | 75 | 1018.4 |
| 20260502023635 | 52 | 142 | 5.2 | 7.8 | 0.00 | 0.00 | 0.00 | 75 | 1018.4 |
| 20260502023132 | 52 | 143 | 4.3 | 7.8 | 0.00 | 0.00 | 0.00 | 75 | 1018.4 |
| 20260502022633 | 51 | 147 | 4.3 | 7.0 | 0.00 | 0.00 | 0.00 | 75 | 1018.6 |
| 20260502022131 | 51 | 141 | 4.3 | 7.0 | 0.00 | 0.00 | 0.00 | 75 | 1018.6 |
| 20260502021631 | 51 | 148 | 4.3 | 7.0 | 0.00 | 0.00 | 0.00 | 75 | 1018.6 |
| 20260502021131 | 51 | 141 | 3.5 | 7.0 | 0.00 | 0.00 | 0.00 | 75 | 1018.7 |
| 20260502020631 | 51 | 142 | 3.5 | 7.0 | 0.00 | 0.00 | 0.00 | 75 | 1018.7 |
| 20260502020130 | 52 | 142 | 4.3 | 7.0 | 0.00 | 0.00 | 0.00 | 75 | 1018.7 |
| 20260502015630 | 51 | 138 | 4.3 | 7.0 | 0.00 | 0.00 | 0.00 | 76 | 1019.0 |
| 20260502015130 | 51 | 136 | 4.3 | 6.1 | 0.00 | 0.00 | 0.00 | 76 | 1019.0 |
| 20260502014630 | 51 | 140 | 3.5 | 6.1 | 0.00 | 0.00 | 0.00 | 76 | 1019.0 |
| 20260502014129 | 51 | 138 | 3.5 | 6.1 | 0.00 | 0.00 | 0.00 | 76 | 1019.2 |
| 20260502013630 | 51 | 137 | 3.5 | 6.1 | 0.00 | 0.00 | 0.00 | 76 | 1019.2 |
| 20260502013129 | 51 | 138 | 2.6 | 5.2 | 0.00 | 0.00 | 0.00 | 77 | 1019.2 |
| 20260502012630 | 51 | 138 | 3.5 | 6.1 | 0.00 | 0.00 | 0.00 | 77 | 1019.3 |
| 20260502012129 | 51 | 142 | 3.5 | 7.0 | 0.00 | 0.00 | 0.00 | 77 | 1019.3 |
| 20260502011629 | 51 | 135 | 3.5 | 7.0 | 0.00 | 0.00 | 0.00 | 77 | 1019.3 |
| 20260502011129 | 51 | 138 | 3.5 | 7.0 | 0.00 | 0.00 | 0.00 | 77 | 1019.6 |
| 20260502010631 | 51 | 132 | 3.5 | 7.0 | 0.00 | 0.00 | 0.00 | 77 | 1019.6 |
| 20260502010130 | 51 | 133 | 3.5 | 7.0 | 0.00 | 0.00 | 0.00 | 78 | 1019.6 |
| 20260502005856 | 51 | 127 | 3.5 | 7.0 | 0.00 | 0.00 | 0.00 | 78 | 1019.7 |
| 20260502005130 | 51 | 127 | 3.5 | 6.1 | 0.00 | 0.00 | 0.00 | 78 | 1019.7 |
| 20260502004629 | 51 | 124 | 3.5 | 7.0 | 0.00 | 0.00 | 0.00 | 78 | 1019.7 |
| 20260502004129 | 51 | 127 | 3.5 | 7.0 | 0.00 | 0.00 | 0.00 | 78 | 1019.8 |
| 20260502003629 | 51 | 126 | 3.5 | 6.1 | 0.00 | 0.00 | 0.00 | 78 | 1019.8 |
| 20260502003131 | 51 | 128 | 3.5 | 6.1 | 0.00 | 0.00 | 0.00 | 78 | 1019.8 |
| 20260502002629 | 51 | 126 | 3.5 | 7.0 | 0.00 | 0.00 | 0.00 | 78 | 1020.0 |
| 20260502002407 | 51 | 123 | 3.5 | 7.0 | 0.00 | 0.00 | 0.00 | 77 | 1020.0 |
| 20260502001628 | 51 | 123 | 2.6 | 6.1 | 0.00 | 0.00 | 0.00 | 77 | 1020.0 |
| 20260502001129 | 51 | 124 | 3.5 | 6.1 | 0.00 | 0.00 | 0.00 | 77 | 1020.1 |
| 20260502000627 | 51 | 125 | 3.5 | 6.1 | 0.00 | 0.00 | 0.00 | 77 | 1020.1 |
| 20260502000127 | 51 | 127 | 3.5 | 6.1 | 0.00 | 0.00 | 0.00 | 77 | 1020.1 |
| 20260501235910 | 52 | 126 | 3.5 | 6.1 | 0.00 | 0.00 | 0.00 | 77 | 1020.2 |
| 20260501235127 | 52 | 129 | 3.5 | 7.0 | 0.00 | 0.00 | 0.00 | 77 | 1020.2 |
| 20260501234626 | 51 | 126 | 3.5 | 7.0 | 0.00 | 0.00 | 0.00 | 77 | 1020.2 |
| 20260501234126 | 51 | 127 | 3.5 | 6.1 | 0.00 | 0.00 | 0.00 | 77 | 1020.3 |
| 20260501233627 | 52 | 126 | 3.5 | 6.1 | 0.00 | 0.00 | 0.00 | 76 | 1020.3 |
| 20260501233127 | 52 | 126 | 3.5 | 7.0 | 0.00 | 0.00 | 0.00 | 76 | 1020.3 |
| 20260501232623 | 52 | 123 | 3.5 | 7.0 | 0.00 | 0.00 | 0.00 | 76 | 1020.5 |
| 20260501232123 | 52 | 123 | 3.5 | 7.0 | 0.00 | 0.00 | 0.00 | 76 | 1020.5 |
| 20260501231621 | 52 | 123 | 3.5 | 7.0 | 0.00 | 0.00 | 0.00 | 75 | 1020.5 |
| 20260501231120 | 52 | 120 | 3.5 | 6.1 | 0.00 | 0.00 | 0.00 | 75 | 1020.7 |
| 20260501230618 | 52 | 123 | 3.5 | 7.0 | 0.00 | 0.00 | 0.00 | 75 | 1020.7 |
| 20260501230114 | 53 | 123 | 3.5 | 7.0 | 0.00 | 0.00 | 0.00 | 75 | 1020.7 |
| 20260501225611 | 53 | 119 | 3.5 | 6.1 | 0.00 | 0.00 | 0.00 | 74 | 1020.7 |
| 20260501225347 | 53 | 117 | 3.5 | 7.0 | 0.00 | 0.00 | 0.00 | 74 | 1020.7 |
| 20260501224606 | 53 | 119 | 3.5 | 7.0 | 0.00 | 0.00 | 0.00 | 74 | 1020.7 |
| 20260501224105 | 53 | 117 | 3.5 | 7.0 | 0.00 | 0.00 | 0.00 | 73 | 1020.8 |
| 20260501223603 | 53 | 115 | 2.6 | 7.0 | 0.00 | 0.00 | 0.00 | 73 | 1020.8 |
| 20260501223103 | 53 | 115 | 2.6 | 7.0 | 0.00 | 0.00 | 0.00 | 73 | 1020.8 |
| 20260501222604 | 54 | 113 | 3.5 | 7.0 | 0.00 | 0.00 | 0.00 | 72 | 1020.9 |
| 20260501222104 | 54 | 121 | 3.5 | 7.0 | 0.00 | 0.00 | 0.00 | 72 | 1020.9 |
| 20260501221604 | 54 | 121 | 4.3 | 7.0 | 0.00 | 0.00 | 0.00 | 72 | 1020.9 |
| 20260501221333 | 54 | 120 | 4.3 | 7.8 | 0.00 | 0.00 | 0.00 | 71 | 1021.1 |
| 20260501220838 | 54 | 118 | 4.3 | 7.8 | 0.00 | 0.00 | 0.00 | 71 | 1021.1 |
| 20260501220331 | 55 | 116 | 3.5 | 7.8 | 0.00 | 0.00 | 0.00 | 71 | 1021.1 |
| 20260501215558 | 55 | 117 | 3.5 | 7.8 | 0.00 | 0.00 | 0.00 | 71 | 1021.2 |
| 20260501215057 | 55 | 117 | 3.5 | 7.0 | 0.00 | 0.00 | 0.00 | 71 | 1021.2 |
| 20260501214556 | 55 | 113 | 3.5 | 7.0 | 0.00 | 0.00 | 0.00 | 70 | 1021.2 |
| 20260501214305 | 55 | 117 | 3.5 | 7.0 | 0.00 | 0.00 | 0.00 | 70 | 1021.2 |
| 20260501214048 | 55 | 117 | 3.5 | 7.0 | 0.00 | 0.00 | 0.00 | 70 | 1021.2 |
| 20260501213534 | 55 | 119 | 3.5 | 7.0 | 0.00 | 0.00 | 0.00 | 70 | 1021.2 |
| 20260501213033 | 56 | 115 | 2.6 | 7.0 | 0.00 | 0.00 | 0.00 | 69 | 1021.2 |
| 20260501212534 | 56 | 115 | 2.6 | 6.1 | 0.00 | 0.00 | 0.00 | 69 | 1021.3 |
| 20260501212033 | 56 | 115 | 3.5 | 7.0 | 0.00 | 0.00 | 0.00 | 69 | 1021.3 |
| 20260501211533 | 56 | 113 | 3.5 | 7.0 | 0.00 | 0.00 | 0.00 | 68 | 1021.3 |
| 20260501211033 | 56 | 117 | 3.5 | 7.0 | 0.00 | 0.00 | 0.00 | 68 | 1021.5 |
| 20260501210534 | 57 | 111 | 3.5 | 7.0 | 0.00 | 0.00 | 0.00 | 68 | 1021.5 |
| 20260501210033 | 57 | 120 | 3.5 | 7.0 | 0.00 | 0.00 | 0.00 | 68 | 1021.5 |
| 20260501205533 | 57 | 112 | 3.5 | 7.0 | 0.00 | 0.00 | 0.00 | 68 | 1021.7 |
| 20260501205032 | 57 | 114 | 2.6 | 7.0 | 0.00 | 0.00 | 0.00 | 68 | 1021.7 |
| 20260501204531 | 57 | 110 | 2.6 | 6.1 | 0.00 | 0.00 | 0.00 | 68 | 1021.7 |
| 20260501204031 | 57 | 110 | 3.5 | 7.0 | 0.00 | 0.00 | 0.00 | 69 | 1021.7 |
| 20260501203804 | 57 | 111 | 3.5 | 7.0 | 0.00 | 0.00 | 0.00 | 69 | 1021.7 |
| 20260501203039 | 57 | 109 | 4.3 | 7.0 | 0.00 | 0.00 | 0.00 | 68 | 1021.7 |
| 20260501202312 | 58 | 115 | 4.3 | 7.8 | 0.00 | 0.00 | 0.00 | 68 | 1021.8 |
| 20260501201531 | 58 | 116 | 4.3 | 7.8 | 0.00 | 0.00 | 0.00 | 68 | 1021.8 |
| 20260501201031 | 58 | 111 | 4.3 | 7.0 | 0.00 | 0.00 | 0.00 | 68 | 1021.9 |
| 20260501200518 | 59 | 115 | 4.3 | 7.0 | 0.00 | 0.00 | 0.00 | 67 | 1021.9 |
| 20260501200018 | 59 | 103 | 4.3 | 7.0 | 0.00 | 0.00 | 0.00 | 67 | 1021.9 |
| 20260501195508 | 59 | 107 | 4.3 | 7.0 | 0.00 | 0.00 | 0.00 | 67 | 1022.0 |
| 20260501195248 | 60 | 113 | 4.3 | 7.0 | 0.00 | 0.00 | 0.00 | 67 | 1022.0 |
| 20260501194759 | 59 | 117 | 3.5 | 7.0 | 0.00 | 0.00 | 0.00 | 68 | 1022.0 |
| 20260501194010 | 59 | 119 | 3.5 | 6.1 | 0.00 | 0.00 | 0.00 | 69 | 1022.1 |
| 20260501193739 | 59 | 109 | 3.5 | 6.1 | 0.00 | 0.00 | 0.00 | 69 | 1022.1 |
| 20260501193009 | 60 | 89 | 3.5 | 6.1 | 0.00 | 0.00 | 0.00 | 68 | 1022.1 |
| 20260501192505 | 60 | 89 | 4.3 | 6.1 | 0.00 | 0.00 | 0.00 | 68 | 1022.1 |
| 20260501192009 | 60 | 89 | 3.5 | 6.1 | 0.00 | 0.00 | 0.00 | 67 | 1022.1 |
| 20260501191738 | 60 | 89 | 2.6 | 5.2 | 0.00 | 0.00 | 0.00 | 66 | 1022.1 |
| 20260501191012 | 61 | 78 | 2.6 | 4.3 | 0.00 | 0.00 | 0.00 | 66 | 1022.1 |
| 20260501190504 | 61 | 78 | 1.7 | 4.3 | 0.00 | 0.00 | 0.00 | 65 | 1022.1 |
| 20260501190013 | 62 | 78 | 2.6 | 6.1 | 0.00 | 0.00 | 0.00 | 65 | 1022.1 |
| 20260501185741 | 62 | 78 | 3.5 | 6.1 | 0.00 | 0.00 | 0.00 | 63 | 1022.0 |
| 20260501185001 | 63 | 77 | 2.6 | 6.1 | 0.00 | 0.00 | 0.00 | 62 | 1022.0 |
| 20260501184453 | 63 | 275 | 1.7 | 4.3 | 0.00 | 0.00 | 0.00 | 61 | 1022.0 |
| 20260501183946 | 64 | 274 | 1.7 | 2.6 | 0.00 | 0.00 | 0.00 | 59 | 1022.3 |
| 20260501183442 | 64 | 274 | 1.7 | 2.6 | 0.00 | 0.00 | 0.00 | 59 | 1022.3 |
| 20260501182941 | 65 | 274 | 1.7 | 2.6 | 0.00 | 0.00 | 0.00 | 58 | 1022.3 |
| 20260501182440 | 65 | 274 | 1.7 | 3.5 | 0.00 | 0.00 | 0.00 | 58 | 1022.3 |
| 20260501181941 | 66 | 274 | 2.6 | 3.5 | 0.00 | 0.00 | 0.00 | 57 | 1022.3 |
| 20260501181439 | 66 | 274 | 1.7 | 3.5 | 0.00 | 0.00 | 0.00 | 56 | 1022.3 |
| 20260501181222 | 66 | 274 | 1.7 | 3.5 | 0.00 | 0.00 | 0.00 | 55 | 1022.3 |
| 20260501180439 | 67 | 274 | 1.7 | 3.5 | 0.00 | 0.00 | 0.00 | 54 | 1022.3 |
| 20260501175939 | 67 | 274 | 1.7 | 2.6 | 0.00 | 0.00 | 0.00 | 54 | 1022.3 |
| 20260501175438 | 67 | 274 | 1.7 | 3.5 | 0.00 | 0.00 | 0.00 | 53 | 1022.4 |
| 20260501175228 | 67 | 274 | 1.7 | 3.5 | 0.00 | 0.00 | 0.00 | 52 | 1022.4 |
| 20260501174437 | 67 | 274 | 1.7 | 3.5 | 0.00 | 0.00 | 0.00 | 51 | 1022.4 |
| 20260501173935 | 68 | 274 | 1.7 | 3.5 | 0.00 | 0.00 | 0.00 | 51 | 1022.7 |
| 20260501173433 | 69 | 274 | 0.9 | 2.6 | 0.00 | 0.00 | 0.00 | 49 | 1022.7 |
| 20260501172930 | 69 | 274 | 0.0 | 1.7 | 0.00 | 0.00 | 0.00 | 48 | 1022.9 |
| 20260501172420 | 68 | 274 | 0.9 | 1.7 | 0.00 | 0.00 | 0.00 | 48 | 1022.9 |
| 20260501172159 | 68 | 274 | 0.9 | 2.6 | 0.00 | 0.00 | 0.00 | 49 | 1022.9 |
| 20260501171409 | 68 | 274 | 1.7 | 2.6 | 0.00 | 0.00 | 0.00 | 51 | 1023.3 |
| 20260501170905 | 68 | 274 | 1.7 | 3.5 | 0.00 | 0.00 | 0.00 | 50 | 1023.3 |
| 20260501170404 | 68 | 274 | 1.7 | 3.5 | 0.00 | 0.00 | 0.00 | 51 | 1023.3 |
| 20260501165903 | 68 | 274 | 1.7 | 3.5 | 0.00 | 0.00 | 0.00 | 49 | 1023.3 |
| 20260501165406 | 67 | 274 | 2.6 | 3.5 | 0.00 | 0.00 | 0.00 | 49 | 1023.3 |
| 20260501164903 | 67 | 274 | 2.6 | 3.5 | 0.00 | 0.00 | 0.00 | 49 | 1023.3 |
| 20260501164402 | 67 | 274 | 2.6 | 3.5 | 0.00 | 0.00 | 0.00 | 48 | 1023.6 |
| 20260501163902 | 67 | 274 | 2.6 | 3.5 | 0.00 | 0.00 | 0.00 | 49 | 1023.6 |